Voltar ao catálogo

STARLINK-35175

AtivoComunicaçõesVLEO
NORAD 65929·PAYLOAD·🇺🇸 United States

Lançado Oct 8, 2025 de Vandenberg Space Force Base

Loading…

Próximas Passagens (próximas 24 horas)

TLE

AtualizadoSource: CelesTrak SupGP

Época: Sep 14, 2026, 15:51 UTC

1 65929C 25225V   26257.66090278 -.00034086  00000+0 -10074-2 0  2570
2 65929  53.1606   6.7385 0001289  73.8179  56.0413 15.34398390    13

Acompanhe STARLINK-35175 em tempo real com AllMySat

Download on the App Store